| time (UTC) | temp F | wind direction | speed MPH | gust MPH | rain 1hr in | rain 24hr in | rain mn in | humidity % | barometer mb |
| 20260906225809 | 99 | 104 | 3.0 | 5.0 | 0.00 | 0.00 | 0.00 | 43 | 1012.5 |
| 20260906225307 | 99 | 64 | 4.0 | 7.0 | 0.00 | 0.00 | 0.00 | 43 | 1012.5 |
| 20260906224800 | 99 | 115 | 3.0 | 7.0 | 0.00 | 0.00 | 0.00 | 44 | 1012.9 |
| 20260906224257 | 100 | 141 | 4.0 | 5.0 | 0.00 | 0.00 | 0.00 | 43 | 1012.5 |
| 20260906223753 | 99 | 135 | 3.0 | 8.0 | 0.00 | 0.00 | 0.00 | 44 | 1012.9 |
| 20260906223249 | 100 | 152 | 2.0 | 5.0 | 0.00 | 0.00 | 0.00 | 43 | 1012.9 |
| 20260906222747 | 100 | 106 | 1.0 | 3.0 | 0.00 | 0.00 | 0.00 | 42 | 1012.9 |
| 20260906222245 | 100 | 127 | 3.0 | 6.0 | 0.00 | 0.00 | 0.00 | 42 | 1012.5 |
| 20260906221743 | 100 | 133 | 3.0 | 7.0 | 0.00 | 0.00 | 0.00 | 42 | 1012.5 |
| 20260906221243 | 100 | 171 | 1.0 | 6.0 | 0.00 | 0.00 | 0.00 | 43 | 1012.9 |
| 20260906220739 | 101 | 110 | 3.0 | 7.0 | 0.00 | 0.00 | 0.00 | 42 | 1012.9 |
| 20260906220234 | 100 | 135 | 0.0 | 1.0 | 0.00 | 0.00 | 0.00 | 44 | 1012.9 |
| 20260906215733 | 100 | 103 | 4.0 | 10.0 | 0.00 | 0.00 | 0.00 | 44 | 1012.9 |
| 20260906215227 | 101 | 119 | 3.0 | 5.0 | 0.00 | 0.00 | 0.00 | 41 | 1012.9 |
| 20260906214725 | 100 | 81 | 5.0 | 9.0 | 0.00 | 0.00 | 0.00 | 43 | 1012.9 |
| 20260906214221 | 100 | 141 | 7.0 | 8.0 | 0.00 | 0.00 | 0.00 | 43 | 1012.9 |
| 20260906213719 | 101 | 98 | 2.0 | 5.0 | 0.00 | 0.00 | 0.00 | 43 | 1012.9 |
| 20260906213214 | 101 | 177 | 1.0 | 3.0 | 0.00 | 0.00 | 0.00 | 42 | 1012.9 |
| 20260906212711 | 101 | 99 | 2.0 | 6.0 | 0.00 | 0.00 | 0.00 | 41 | 1013.2 |
| 20260906212207 | 100 | 173 | 2.0 | 7.0 | 0.00 | 0.00 | 0.00 | 43 | 1013.2 |
| 20260906211706 | 100 | 105 | 1.0 | 2.0 | 0.00 | 0.00 | 0.00 | 44 | 1013.2 |
| 20260906211202 | 100 | 119 | 1.0 | 5.0 | 0.00 | 0.00 | 0.00 | 45 | 1013.2 |
| 20260906210657 | 100 | 164 | 3.0 | 9.0 | 0.00 | 0.00 | 0.00 | 44 | 1013.2 |
| 20260906210157 | 100 | 96 | 2.0 | 8.0 | 0.00 | 0.00 | 0.00 | 43 | 1013.6 |
| 20260906205653 | 99 | 142 | 1.0 | 3.0 | 0.00 | 0.00 | 0.00 | 45 | 1013.6 |
| 20260906205149 | 99 | 127 | 3.0 | 5.0 | 0.00 | 0.00 | 0.00 | 44 | 1013.6 |
| 20260906204649 | 99 | 166 | 2.0 | 5.0 | 0.00 | 0.00 | 0.00 | 44 | 1013.6 |
| 20260906204143 | 98 | 57 | 1.0 | 6.0 | 0.00 | 0.00 | 0.00 | 45 | 1013.6 |
| 20260906203643 | 99 | 45 | 3.0 | 6.0 | 0.00 | 0.00 | 0.00 | 45 | 1013.6 |
| 20260906203138 | 99 | 159 | 2.0 | 6.0 | 0.00 | 0.00 | 0.00 | 44 | 1013.9 |
| 20260906202635 | 99 | 150 | 5.0 | 8.0 | 0.00 | 0.00 | 0.00 | 44 | 1013.9 |
| 20260906202134 | 100 | 214 | 3.0 | 5.0 | 0.00 | 0.00 | 0.00 | 44 | 1013.9 |
| 20260906201629 | 99 | 89 | 4.0 | 10.0 | 0.00 | 0.00 | 0.00 | 46 | 1013.9 |
| 20260906201128 | 100 | 67 | 5.0 | 8.0 | 0.00 | 0.00 | 0.00 | 45 | 1013.9 |
| 20260906200625 | 100 | 199 | 1.0 | 3.0 | 0.00 | 0.00 | 0.00 | 45 | 1014.2 |
| 20260906200121 | 100 | 161 | 1.0 | 6.0 | 0.00 | 0.00 | 0.00 | 44 | 1014.2 |
| 20260906195621 | 100 | 145 | 3.0 | 5.0 | 0.00 | 0.00 | 0.00 | 46 | 1014.2 |
| 20260906195117 | 100 | 109 | 1.0 | 6.0 | 0.00 | 0.00 | 0.00 | 45 | 1014.2 |
| 20260906194613 | 101 | 100 | 4.0 | 10.0 | 0.00 | 0.00 | 0.00 | 44 | 1014.2 |
| 20260906194108 | 100 | 52 | 1.0 | 3.0 | 0.00 | 0.00 | 0.00 | 45 | 1013.9 |
| 20260906193603 | 99 | 135 | 3.0 | 8.0 | 0.00 | 0.00 | 0.00 | 46 | 1014.7 |
| 20260906193058 | 99 | 146 | 4.0 | 8.0 | 0.00 | 0.00 | 0.00 | 47 | 1014.7 |
| 20260906192554 | 100 | 154 | 2.0 | 10.0 | 0.00 | 0.00 | 0.00 | 47 | 1014.2 |
| 20260906192053 | 100 | 177 | 2.0 | 3.0 | 0.00 | 0.00 | 0.00 | 47 | 1014.7 |
| 20260906191548 | 99 | 100 | 4.0 | 5.0 | 0.00 | 0.00 | 0.00 | 47 | 1014.7 |
| 20260906191047 | 99 | 166 | 3.0 | 5.0 | 0.00 | 0.00 | 0.00 | 48 | 1014.7 |
| 20260906190546 | 98 | 186 | 3.0 | 5.0 | 0.00 | 0.00 | 0.00 | 48 | 1014.7 |
| 20260906190042 | 98 | 139 | 1.0 | 5.0 | 0.00 | 0.00 | 0.00 | 49 | 1014.7 |
| 20260906185541 | 96 | 147 | 3.0 | 8.0 | 0.00 | 0.00 | 0.00 | 49 | 1014.7 |
| 20260906185039 | 98 | 177 | 3.0 | 6.0 | 0.00 | 0.00 | 0.00 | 48 | 1015.0 |
| 20260906184534 | 100 | 153 | 1.0 | 2.0 | 0.00 | 0.00 | 0.00 | 47 | 1015.0 |
| 20260906184030 | 99 | 166 | 1.0 | 3.0 | 0.00 | 0.00 | 0.00 | 50 | 1015.0 |
| 20260906183527 | 98 | 125 | 1.0 | 6.0 | 0.00 | 0.00 | 0.00 | 49 | 1015.0 |
| 20260906183022 | 98 | 107 | 2.0 | 5.0 | 0.00 | 0.00 | 0.00 | 50 | 1015.0 |
| 20260906182517 | 98 | 119 | 2.0 | 3.0 | 0.00 | 0.00 | 0.00 | 49 | 1015.0 |
| 20260906182013 | 96 | 169 | 2.0 | 5.0 | 0.00 | 0.00 | 0.00 | 50 | 1015.3 |
| 20260906181509 | 96 | 142 | 1.0 | 1.0 | 0.00 | 0.00 | 0.00 | 51 | 1015.3 |
| 20260906181004 | 97 | 176 | 1.0 | 6.0 | 0.00 | 0.00 | 0.00 | 51 | 1015.7 |
| 20260906180504 | 97 | 203 | 2.0 | 2.0 | 0.00 | 0.00 | 0.00 | 50 | 1015.3 |
| 20260906180002 | 97 | 160 | 1.0 | 3.0 | 0.00 | 0.00 | 0.00 | 50 | 1015.7 |
| 20260906175457 | 97 | 138 | 2.0 | 6.0 | 0.00 | 0.00 | 0.00 | 51 | 1015.7 |
| 20260906174956 | 97 | 151 | 1.0 | 5.0 | 0.00 | 0.00 | 0.00 | 51 | 1016.0 |
| 20260906174455 | 96 | 189 | 4.0 | 7.0 | 0.00 | 0.00 | 0.00 | 52 | 1015.7 |
| 20260906173950 | 96 | 131 | 3.0 | 8.0 | 0.00 | 0.00 | 0.00 | 53 | 1015.7 |
| 20260906173445 | 97 | 134 | 1.0 | 5.0 | 0.00 | 0.00 | 0.00 | 53 | 1016.0 |
| 20260906172945 | 97 | 112 | 2.0 | 3.0 | 0.00 | 0.00 | 0.00 | 52 | 1016.0 |
| 20260906172441 | 96 | 76 | 2.0 | 3.0 | 0.00 | 0.00 | 0.00 | 52 | 1016.0 |
| 20260906171936 | 96 | 100 | 4.0 | 7.0 | 0.00 | 0.00 | 0.00 | 53 | 1016.4 |
| 20260906171431 | 96 | 100 | 3.0 | 3.0 | 0.00 | 0.00 | 0.00 | 53 | 1016.4 |
| 20260906170926 | 95 | 216 | 1.0 | 5.0 | 0.00 | 0.00 | 0.00 | 55 | 1016.4 |
| 20260906170423 | 94 | 111 | 1.0 | 2.0 | 0.00 | 0.00 | 0.00 | 56 | 1016.4 |
| 20260906165919 | 94 | 126 | 2.0 | 2.0 | 0.00 | 0.00 | 0.00 | 56 | 1016.7 |
| 20260906165418 | 95 | 148 | 5.0 | 7.0 | 0.00 | 0.00 | 0.00 | 55 | 1016.7 |
| 20260906164914 | 95 | 100 | 3.0 | 6.0 | 0.00 | 0.00 | 0.00 | 56 | 1016.7 |
| 20260906164412 | 94 | 156 | 0.0 | 1.0 | 0.00 | 0.00 | 0.00 | 57 | 1016.7 |
| 20260906163909 | 94 | 130 | 1.0 | 3.0 | 0.00 | 0.00 | 0.00 | 56 | 1016.7 |
| 20260906163404 | 94 | 180 | 1.0 | 5.0 | 0.00 | 0.00 | 0.00 | 57 | 1016.7 |
| 20260906162902 | 95 | 167 | 0.0 | 3.0 | 0.00 | 0.00 | 0.00 | 60 | 1016.7 |
| 20260906162401 | 94 | 156 | 0.0 | 2.0 | 0.00 | 0.00 | 0.00 | 57 | 1016.7 |
| 20260906161856 | 93 | 94 | 2.0 | 5.0 | 0.00 | 0.00 | 0.00 | 60 | 1016.7 |
| 20260906161355 | 93 | 175 | 1.0 | 3.0 | 0.00 | 0.00 | 0.00 | 63 | 1016.7 |
| 20260906160855 | 93 | 139 | 4.0 | 6.0 | 0.00 | 0.00 | 0.00 | 62 | 1016.7 |
| 20260906160348 | 92 | 140 | 0.0 | 5.0 | 0.00 | 0.00 | 0.00 | 63 | 1016.7 |
| 20260906155847 | 93 | 170 | 4.0 | 6.0 | 0.00 | 0.00 | 0.00 | 61 | 1016.7 |
| 20260906155341 | 92 | 157 | 1.0 | 2.0 | 0.00 | 0.00 | 0.00 | 64 | 1016.4 |
| 20260906154837 | 91 | 148 | 0.0 | 2.0 | 0.00 | 0.00 | 0.00 | 65 | 1016.7 |
| 20260906154332 | 91 | 173 | 1.0 | 2.0 | 0.00 | 0.00 | 0.00 | 66 | 1016.7 |
| 20260906153830 | 92 | 106 | 1.0 | 3.0 | 0.00 | 0.00 | 0.00 | 65 | 1017.0 |
| 20260906153324 | 91 | 152 | 2.0 | 3.0 | 0.00 | 0.00 | 0.00 | 66 | 1016.7 |
| 20260906152820 | 91 | 166 | 1.0 | 2.0 | 0.00 | 0.00 | 0.00 | 67 | 1016.7 |
| 20260906152315 | 91 | 173 | 2.0 | 3.0 | 0.00 | 0.00 | 0.00 | 67 | 1016.4 |
| 20260906151814 | 90 | 135 | 0.0 | 2.0 | 0.00 | 0.00 | 0.00 | 68 | 1016.4 |
| 20260906151309 | 89 | 142 | 0.0 | 2.0 | 0.00 | 0.00 | 0.00 | 69 | 1016.4 |
| 20260906150805 | 90 | 164 | 4.0 | 6.0 | 0.00 | 0.00 | 0.00 | 68 | 1016.4 |
| 20260906150301 | 89 | 175 | 1.0 | 2.0 | 0.00 | 0.00 | 0.00 | 70 | 1016.4 |
| 20260906145800 | 89 | 168 | 3.0 | 5.0 | 0.00 | 0.00 | 0.00 | 69 | 1016.4 |
| 20260906145258 | 89 | 154 | 0.0 | 2.0 | 0.00 | 0.00 | 0.00 | 70 | 1016.0 |
| 20260906144753 | 88 | 201 | 0.0 | 2.0 | 0.00 | 0.00 | 0.00 | 71 | 1016.4 |
| 20260906144248 | 88 | 169 | 1.0 | 1.0 | 0.00 | 0.00 | 0.00 | 71 | 1016.4 |
| 20260906143748 | 88 | 156 | 1.0 | 3.0 | 0.00 | 0.00 | 0.00 | 72 | 1016.4 |
| 20260906143245 | 87 | 176 | 0.0 | 2.0 | 0.00 | 0.00 | 0.00 | 73 | 1016.4 |
| 20260906142744 | 87 | 174 | 1.0 | 2.0 | 0.00 | 0.00 | 0.00 | 73 | 1016.4 |
| 20260906142239 | 86 | 181 | 0.0 | 1.0 | 0.00 | 0.00 | 0.00 | 74 | 1016.4 |
| 20260906141737 | 86 | 182 | 1.0 | 2.0 | 0.00 | 0.00 | 0.00 | 74 | 1016.4 |
| 20260906141233 | 86 | 145 | 1.0 | 3.0 | 0.00 | 0.00 | 0.00 | 74 | 1016.4 |
| 20260906140732 | 86 | 163 | 0.0 | 1.0 | 0.00 | 0.00 | 0.00 | 75 | 1016.4 |
| 20260906140227 | 86 | 162 | 1.0 | 2.0 | 0.00 | 0.00 | 0.00 | 75 | 1016.4 |
| 20260906135724 | 85 | 152 | 1.0 | 2.0 | 0.00 | 0.00 | 0.00 | 76 | 1016.4 |
| 20260906135220 | 85 | 160 | 0.0 | 2.0 | 0.00 | 0.00 | 0.00 | 77 | 1016.4 |
| 20260906134715 | 84 | 167 | 0.0 | 1.0 | 0.00 | 0.00 | 0.00 | 78 | 1016.0 |
| 20260906134210 | 84 | 139 | 0.0 | 1.0 | 0.00 | 0.00 | 0.00 | 79 | 1016.4 |
| 20260906133706 | 83 | 156 | 0.0 | 1.0 | 0.00 | 0.00 | 0.00 | 79 | 1016.0 |
| 20260906133201 | 83 | 157 | 1.0 | 2.0 | 0.00 | 0.00 | 0.00 | 80 | 1016.0 |
| 20260906132651 | 82 | 141 | 1.0 | 2.0 | 0.00 | 0.00 | 0.00 | 81 | 1016.4 |
| 20260906132147 | 82 | 139 | 0.0 | 1.0 | 0.00 | 0.00 | 0.00 | 81 | 1016.0 |
| 20260906131642 | 82 | 160 | 0.0 | 1.0 | 0.00 | 0.00 | 0.00 | 82 | 1016.4 |
| 20260906131137 | 81 | 160 | 1.0 | 2.0 | 0.00 | 0.00 | 0.00 | 83 | 1016.0 |
| 20260906130632 | 80 | 92 | 0.0 | 1.0 | 0.00 | 0.00 | 0.00 | 85 | 1016.4 |
| 20260906130127 | 79 | 171 | 0.0 | 1.0 | 0.00 | 0.00 | 0.00 | 88 | 1016.0 |
| 20260906125625 | 78 | 155 | 1.0 | 2.0 | 0.00 | 0.00 | 0.00 | 89 | 1016.0 |
| 20260906125123 | 77 | 152 | 1.0 | 2.0 | 0.00 | 0.00 | 0.00 | 92 | 1016.0 |
| 20260906124619 | 76 | 174 | 0.0 | 1.0 | 0.00 | 0.00 | 0.00 | 93 | 1016.0 |
| 20260906124114 | 76 | 172 | 0.0 | 1.0 | 0.00 | 0.00 | 0.00 | 93 | 1016.0 |
| 20260906123614 | 75 | 175 | 0.0 | 0.0 | 0.00 | 0.00 | 0.00 | 93 | 1016.0 |
| 20260906123109 | 75 | 199 | 0.0 | 0.0 | 0.00 | 0.00 | 0.00 | 93 | 1016.0 |
| 20260906122608 | 75 | 199 | 0.0 | 0.0 | 0.00 | 0.00 | 0.00 | 93 | 1015.7 |
| 20260906122104 | 75 | 198 | 0.0 | 0.0 | 0.00 | 0.00 | 0.00 | 93 | 1015.7 |
| 20260906121600 | 75 | 198 | 0.0 | 0.0 | 0.00 | 0.00 | 0.00 | 92 | 1016.0 |
| 20260906121056 | 75 | 198 | 0.0 | 0.0 | 0.00 | 0.00 | 0.00 | 92 | 1015.7 |
| 20260906120552 | 76 | 199 | 0.0 | 0.0 | 0.00 | 0.00 | 0.00 | 92 | 1015.7 |
| 20260906120049 | 76 | 197 | 0.0 | 0.0 | 0.00 | 0.00 | 0.00 | 91 | 1015.7 |
| 20260906115548 | 76 | 197 | 0.0 | 0.0 | 0.00 | 0.00 | 0.00 | 91 | 1015.7 |
| 20260906115043 | 76 | 197 | 0.0 | 0.0 | 0.00 | 0.00 | 0.00 | 91 | 1015.7 |
| 20260906114537 | 76 | 197 | 0.0 | 0.0 | 0.00 | 0.00 | 0.00 | 90 | 1015.3 |
| 20260906114033 | 76 | 196 | 0.0 | 0.0 | 0.00 | 0.00 | 0.00 | 90 | 1015.3 |
| 20260906113532 | 77 | 196 | 0.0 | 1.0 | 0.00 | 0.00 | 0.00 | 90 | 1015.3 |
| 20260906113027 | 77 | 191 | 0.0 | 0.0 | 0.00 | 0.00 | 0.00 | 91 | 1015.3 |
| 20260906112522 | 76 | 195 | 0.0 | 0.0 | 0.00 | 0.00 | 0.00 | 91 | 1015.3 |
| 20260906112019 | 76 | 198 | 0.0 | 0.0 | 0.00 | 0.00 | 0.00 | 91 | 1015.3 |
| 20260906111518 | 76 | 198 | 0.0 | 0.0 | 0.00 | 0.00 | 0.00 | 91 | 1015.3 |
| 20260906111013 | 77 | 199 | 0.0 | 1.0 | 0.00 | 0.00 | 0.00 | 90 | 1015.0 |
| 20260906110508 | 77 | 199 | 0.0 | 0.0 | 0.00 | 0.00 | 0.00 | 90 | 1015.3 |
| 20260906110007 | 77 | 201 | 0.0 | 0.0 | 0.00 | 0.00 | 0.00 | 89 | 1015.0 |
| 20260906105503 | 77 | 201 | 0.0 | 0.0 | 0.00 | 0.00 | 0.00 | 89 | 1015.0 |
| 20260906104959 | 77 | 201 | 0.0 | 0.0 | 0.00 | 0.00 | 0.00 | 88 | 1014.7 |
| 20260906104457 | 77 | 201 | 0.0 | 0.0 | 0.00 | 0.00 | 0.00 | 88 | 1015.0 |
| 20260906103957 | 77 | 201 | 0.0 | 0.0 | 0.00 | 0.00 | 0.00 | 87 | 1015.0 |
| 20260906103455 | 78 | 202 | 0.0 | 0.0 | 0.00 | 0.00 | 0.00 | 87 | 1014.7 |
| 20260906102950 | 78 | 203 | 0.0 | 1.0 | 0.00 | 0.00 | 0.00 | 87 | 1015.0 |
| 20260906102444 | 78 | 194 | 0.0 | 0.0 | 0.00 | 0.00 | 0.00 | 86 | 1015.0 |
| 20260906101939 | 78 | 194 | 0.0 | 0.0 | 0.00 | 0.00 | 0.00 | 86 | 1015.0 |
| 20260906101435 | 79 | 183 | 0.0 | 0.0 | 0.00 | 0.00 | 0.00 | 85 | 1014.7 |
| 20260906100930 | 79 | 173 | 0.0 | 0.0 | 0.00 | 0.00 | 0.00 | 85 | 1014.7 |
| 20260906100430 | 79 | 185 | 0.0 | 1.0 | 0.00 | 0.00 | 0.00 | 85 | 1014.7 |
| 20260906095924 | 79 | 193 | 0.0 | 1.0 | 0.00 | 0.00 | 0.00 | 84 | 1014.7 |
| 20260906095420 | 79 | 191 | 0.0 | 2.0 | 0.00 | 0.00 | 0.00 | 84 | 1014.7 |
| 20260906094920 | 79 | 193 | 0.0 | 1.0 | 0.00 | 0.00 | 0.00 | 84 | 1014.7 |
| 20260906094414 | 79 | 199 | 0.0 | 0.0 | 0.00 | 0.00 | 0.00 | 84 | 1014.2 |
| 20260906093905 | 79 | 189 | 0.0 | 1.0 | 0.00 | 0.00 | 0.00 | 84 | 1014.2 |
| 20260906093402 | 79 | 190 | 1.0 | 2.0 | 0.00 | 0.00 | 0.00 | 84 | 1014.2 |
| 20260906092900 | 79 | 199 | 0.0 | 1.0 | 0.00 | 0.00 | 0.00 | 84 | 1014.2 |
| 20260906092355 | 79 | 202 | 0.0 | 1.0 | 0.00 | 0.00 | 0.00 | 84 | 1014.7 |
| 20260906091850 | 79 | 197 | 0.0 | 1.0 | 0.00 | 0.00 | 0.00 | 83 | 1014.2 |
| 20260906091346 | 79 | 182 | 0.0 | 1.0 | 0.00 | 0.00 | 0.00 | 83 | 1014.2 |
| 20260906090842 | 80 | 198 | 0.0 | 1.0 | 0.00 | 0.00 | 0.00 | 83 | 1014.2 |
| 20260906090342 | 80 | 202 | 1.0 | 1.0 | 0.00 | 0.00 | 0.00 | 83 | 1014.2 |
| 20260906085836 | 80 | 194 | 0.0 | 2.0 | 0.00 | 0.00 | 0.00 | 83 | 1014.2 |
| 20260906085335 | 80 | 193 | 0.0 | 1.0 | 0.00 | 0.00 | 0.00 | 83 | 1014.2 |
| 20260906084830 | 80 | 183 | 0.0 | 1.0 | 0.00 | 0.00 | 0.00 | 83 | 1014.2 |
| 20260906084330 | 80 | 165 | 0.0 | 1.0 | 0.00 | 0.00 | 0.00 | 83 | 1014.2 |
| 20260906083825 | 80 | 198 | 1.0 | 1.0 | 0.00 | 0.00 | 0.00 | 83 | 1014.2 |
| 20260906083320 | 80 | 183 | 0.0 | 0.0 | 0.00 | 0.00 | 0.00 | 83 | 1014.2 |
| 20260906082814 | 80 | 202 | 0.0 | 0.0 | 0.00 | 0.00 | 0.00 | 82 | 1014.2 |
| 20260906082309 | 80 | 192 | 0.0 | 1.0 | 0.00 | 0.00 | 0.00 | 82 | 1014.2 |
| 20260906081805 | 80 | 194 | 0.0 | 1.0 | 0.00 | 0.00 | 0.00 | 82 | 1014.2 |
| 20260906081301 | 81 | 199 | 0.0 | 1.0 | 0.00 | 0.00 | 0.00 | 82 | 1014.2 |
| 20260906080757 | 81 | 199 | 0.0 | 1.0 | 0.00 | 0.00 | 0.00 | 81 | 1014.7 |
| 20260906080253 | 81 | 195 | 0.0 | 1.0 | 0.00 | 0.00 | 0.00 | 81 | 1014.7 |
| 20260906075747 | 81 | 193 | 0.0 | 1.0 | 0.00 | 0.00 | 0.00 | 81 | 1014.7 |
| 20260906075241 | 82 | 204 | 1.0 | 2.0 | 0.00 | 0.00 | 0.00 | 80 | 1014.7 |
| 20260906074736 | 82 | 202 | 1.0 | 2.0 | 0.00 | 0.00 | 0.00 | 80 | 1014.7 |
| 20260906074231 | 82 | 182 | 0.0 | 1.0 | 0.00 | 0.00 | 0.00 | 80 | 1014.7 |
| 20260906073731 | 82 | 185 | 0.0 | 1.0 | 0.00 | 0.00 | 0.00 | 80 | 1014.7 |
| 20260906073231 | 82 | 196 | 0.0 | 2.0 | 0.00 | 0.00 | 0.00 | 80 | 1014.2 |
| 20260906072726 | 82 | 198 | 2.0 | 2.0 | 0.00 | 0.00 | 0.00 | 80 | 1014.7 |
| 20260906072222 | 82 | 202 | 1.0 | 2.0 | 0.00 | 0.00 | 0.00 | 80 | 1014.7 |
| 20260906071718 | 82 | 204 | 1.0 | 2.0 | 0.00 | 0.00 | 0.00 | 79 | 1014.7 |
| 20260906071218 | 83 | 186 | 0.0 | 3.0 | 0.00 | 0.00 | 0.00 | 79 | 1014.7 |
| 20260906070715 | 83 | 150 | 0.0 | 2.0 | 0.00 | 0.00 | 0.00 | 79 | 1014.7 |
| 20260906070210 | 83 | 183 | 0.0 | 3.0 | 0.00 | 0.00 | 0.00 | 78 | 1014.7 |
| 20260906065709 | 83 | 102 | 2.0 | 6.0 | 0.00 | 0.00 | 0.00 | 78 | 1014.7 |
| 20260906065205 | 83 | 143 | 0.0 | 1.0 | 0.00 | 0.00 | 0.00 | 78 | 1014.7 |
| 20260906064700 | 83 | 224 | 1.0 | 2.0 | 0.00 | 0.00 | 0.00 | 78 | 1014.2 |
| 20260906064155 | 83 | 180 | 2.0 | 3.0 | 0.00 | 0.00 | 0.00 | 78 | 1014.7 |
| 20260906063650 | 83 | 186 | 1.0 | 2.0 | 0.00 | 0.00 | 0.00 | 78 | 1015.0 |
| 20260906063146 | 83 | 183 | 1.0 | 2.0 | 0.00 | 0.00 | 0.00 | 77 | 1014.7 |
| 20260906062642 | 83 | 187 | 1.0 | 2.0 | 0.00 | 0.00 | 0.00 | 77 | 1015.0 |
| 20260906062140 | 83 | 191 | 0.0 | 2.0 | 0.00 | 0.00 | 0.00 | 77 | 1015.0 |
| 20260906061637 | 83 | 200 | 0.0 | 2.0 | 0.00 | 0.00 | 0.00 | 77 | 1014.7 |
| 20260906061137 | 83 | 191 | 0.0 | 1.0 | 0.00 | 0.00 | 0.00 | 77 | 1014.7 |
| 20260906060633 | 83 | 188 | 0.0 | 0.0 | 0.00 | 0.00 | 0.00 | 77 | 1014.7 |
| 20260906060131 | 83 | 210 | 1.0 | 2.0 | 0.00 | 0.00 | 0.00 | 77 | 1015.0 |
| 20260906055626 | 83 | 182 | 0.0 | 1.0 | 0.00 | 0.00 | 0.00 | 77 | 1015.0 |
| 20260906055121 | 83 | 194 | 0.0 | 1.0 | 0.00 | 0.00 | 0.00 | 77 | 1014.7 |
| 20260906054616 | 83 | 197 | 0.0 | 0.0 | 0.00 | 0.00 | 0.00 | 77 | 1015.0 |
| 20260906054111 | 83 | 201 | 1.0 | 1.0 | 0.00 | 0.00 | 0.00 | 77 | 1015.0 |
| 20260906053608 | 84 | 196 | 0.0 | 0.0 | 0.00 | 0.00 | 0.00 | 76 | 1015.0 |
| 20260906053103 | 84 | 188 | 1.0 | 2.0 | 0.00 | 0.00 | 0.00 | 75 | 1014.7 |
| 20260906052558 | 84 | 171 | 1.0 | 1.0 | 0.00 | 0.00 | 0.00 | 74 | 1014.7 |
| 20260906052055 | 84 | 188 | 0.0 | 3.0 | 0.00 | 0.00 | 0.00 | 74 | 1015.0 |
| 20260906051550 | 85 | 145 | 1.0 | 2.0 | 0.00 | 0.00 | 0.00 | 74 | 1015.0 |
| 20260906051045 | 85 | 196 | 0.0 | 2.0 | 0.00 | 0.00 | 0.00 | 74 | 1014.7 |
| 20260906050541 | 85 | 189 | 1.0 | 2.0 | 0.00 | 0.00 | 0.00 | 74 | 1015.0 |
| 20260906050036 | 85 | 201 | 0.0 | 3.0 | 0.00 | 0.00 | 0.00 | 74 | 1014.7 |
| 20260906045534 | 85 | 201 | 0.0 | 2.0 | 0.00 | 0.00 | 0.00 | 73 | 1015.0 |
| 20260906045030 | 85 | 167 | 2.0 | 3.0 | 0.00 | 0.00 | 0.00 | 73 | 1014.7 |
| 20260906044525 | 85 | 173 | 2.0 | 6.0 | 0.00 | 0.00 | 0.00 | 73 | 1015.0 |
| 20260906044021 | 85 | 168 | 1.0 | 2.0 | 0.00 | 0.00 | 0.00 | 73 | 1014.7 |
| 20260906043516 | 85 | 166 | 1.0 | 5.0 | 0.00 | 0.00 | 0.00 | 73 | 1014.7 |
| 20260906043013 | 85 | 202 | 1.0 | 1.0 | 0.00 | 0.00 | 0.00 | 73 | 1014.7 |
| 20260906042511 | 86 | 188 | 0.0 | 1.0 | 0.00 | 0.00 | 0.00 | 73 | 1014.7 |
| 20260906042010 | 86 | 187 | 1.0 | 2.0 | 0.00 | 0.00 | 0.00 | 73 | 1014.7 |
| 20260906041508 | 86 | 191 | 1.0 | 2.0 | 0.00 | 0.00 | 0.00 | 73 | 1014.7 |
| 20260906041007 | 86 | 183 | 0.0 | 1.0 | 0.00 | 0.00 | 0.00 | 72 | 1014.7 |
| 20260906040502 | 86 | 177 | 1.0 | 2.0 | 0.00 | 0.00 | 0.00 | 72 | 1014.7 |
| 20260906035957 | 86 | 194 | 0.0 | 1.0 | 0.00 | 0.00 | 0.00 | 71 | 1014.2 |
| 20260906035453 | 87 | 196 | 1.0 | 3.0 | 0.00 | 0.00 | 0.00 | 71 | 1014.7 |
| 20260906034949 | 87 | 179 | 0.0 | 2.0 | 0.00 | 0.00 | 0.00 | 70 | 1014.7 |
| 20260906034449 | 87 | 187 | 2.0 | 2.0 | 0.00 | 0.00 | 0.00 | 70 | 1014.7 |
| 20260906033944 | 87 | 237 | 1.0 | 2.0 | 0.00 | 0.00 | 0.00 | 70 | 1014.7 |
| 20260906033444 | 87 | 189 | 0.0 | 1.0 | 0.00 | 0.00 | 0.00 | 70 | 1014.7 |
| 20260906032940 | 87 | 180 | 0.0 | 3.0 | 0.00 | 0.00 | 0.00 | 70 | 1015.0 |
| 20260906032436 | 87 | 177 | 1.0 | 2.0 | 0.00 | 0.00 | 0.00 | 69 | 1015.0 |
| 20260906031930 | 87 | 184 | 1.0 | 1.0 | 0.00 | 0.00 | 0.00 | 69 | 1014.7 |
| 20260906031426 | 87 | 163 | 0.0 | 1.0 | 0.00 | 0.00 | 0.00 | 69 | 1014.7 |
| 20260906030921 | 87 | 175 | 1.0 | 1.0 | 0.00 | 0.00 | 0.00 | 68 | 1014.7 |
| 20260906030416 | 87 | 150 | 0.0 | 2.0 | 0.00 | 0.00 | 0.00 | 68 | 1014.7 |
| 20260906025916 | 88 | 185 | 0.0 | 2.0 | 0.00 | 0.00 | 0.00 | 67 | 1014.7 |
| 20260906025410 | 88 | 165 | 0.0 | 3.0 | 0.00 | 0.00 | 0.00 | 66 | 1014.7 |
| 20260906024909 | 88 | 166 | 0.0 | 1.0 | 0.00 | 0.00 | 0.00 | 65 | 1014.7 |
| 20260906024408 | 89 | 175 | 0.0 | 3.0 | 0.00 | 0.00 | 0.00 | 65 | 1014.7 |
| 20260906023904 | 89 | 190 | 0.0 | 2.0 | 0.00 | 0.00 | 0.00 | 64 | 1014.7 |
| 20260906023400 | 89 | 179 | 1.0 | 2.0 | 0.00 | 0.00 | 0.00 | 63 | 1014.2 |
| 20260906022855 | 89 | 141 | 1.0 | 5.0 | 0.00 | 0.00 | 0.00 | 63 | 1013.9 |
| 20260906022350 | 89 | 165 | 1.0 | 6.0 | 0.00 | 0.00 | 0.00 | 62 | 1013.9 |
| 20260906021846 | 90 | 140 | 2.0 | 3.0 | 0.00 | 0.00 | 0.00 | 61 | 1013.9 |
| 20260906021345 | 90 | 159 | 2.0 | 3.0 | 0.00 | 0.00 | 0.00 | 60 | 1013.9 |
| 20260906020840 | 90 | 195 | 3.0 | 7.0 | 0.00 | 0.00 | 0.00 | 60 | 1013.9 |
| 20260906020339 | 90 | 188 | 2.0 | 3.0 | 0.00 | 0.00 | 0.00 | 60 | 1013.9 |
| 20260906015834 | 91 | 123 | 2.0 | 3.0 | 0.00 | 0.00 | 0.00 | 59 | 1013.6 |
| 20260906015333 | 91 | 97 | 1.0 | 10.0 | 0.00 | 0.00 | 0.00 | 58 | 1013.6 |
| 20260906014832 | 92 | 120 | 0.0 | 3.0 | 0.00 | 0.00 | 0.00 | 57 | 1013.2 |
| 20260906014327 | 92 | 160 | 2.0 | 5.0 | 0.00 | 0.00 | 0.00 | 56 | 1013.6 |
| 20260906013824 | 93 | 107 | 3.0 | 8.0 | 0.00 | 0.00 | 0.00 | 54 | 1013.2 |
| 20260906013319 | 93 | 112 | 1.0 | 5.0 | 0.00 | 0.00 | 0.00 | 51 | 1013.2 |
| 20260906012814 | 93 | 175 | 0.0 | 1.0 | 0.00 | 0.00 | 0.00 | 51 | 1012.9 |
| 20260906012309 | 93 | 178 | 1.0 | 2.0 | 0.00 | 0.00 | 0.00 | 51 | 1012.9 |
| 20260906011804 | 94 | 182 | 0.0 | 1.0 | 0.00 | 0.00 | 0.00 | 51 | 1012.5 |
| 20260906011304 | 94 | 145 | 2.0 | 5.0 | 0.00 | 0.00 | 0.00 | 50 | 1012.9 |
| 20260906010800 | 94 | 180 | 0.0 | 2.0 | 0.00 | 0.00 | 0.00 | 50 | 1012.9 |
| 20260906010256 | 95 | 174 | 1.0 | 3.0 | 0.00 | 0.00 | 0.00 | 49 | 1012.5 |
| 20260906005750 | 95 | 113 | 4.0 | 6.0 | 0.00 | 0.00 | 0.00 | 48 | 1012.5 |
| 20260906005250 | 95 | 55 | 2.0 | 5.0 | 0.00 | 0.00 | 0.00 | 47 | 1012.5 |
| 20260906004749 | 95 | 150 | 1.0 | 3.0 | 0.00 | 0.00 | 0.00 | 47 | 1012.9 |
| 20260906004244 | 96 | 134 | 2.0 | 2.0 | 0.00 | 0.00 | 0.00 | 46 | 1012.5 |
| 20260906003738 | 96 | 162 | 0.0 | 3.0 | 0.00 | 0.00 | 0.00 | 46 | 1012.9 |
| 20260906003234 | 96 | 154 | 2.0 | 5.0 | 0.00 | 0.00 | 0.00 | 45 | 1012.5 |
| 20260906002735 | 97 | 173 | 1.0 | 5.0 | 0.00 | 0.00 | 0.00 | 45 | 1012.5 |
| 20260906002234 | 97 | 132 | 1.0 | 2.0 | 0.00 | 0.00 | 0.00 | 45 | 1012.5 |
| 20260906001730 | 97 | 177 | 1.0 | 2.0 | 0.00 | 0.00 | 0.00 | 44 | 1012.9 |
| 20260906001225 | 98 | 108 | 2.0 | 5.0 | 0.00 | 0.00 | 0.00 | 44 | 1012.2 |
| 20260906000720 | 98 | 156 | 0.0 | 1.0 | 0.00 | 0.00 | 0.00 | 44 | 1012.2 |
| 20260906000215 | 98 | 146 | 1.0 | 2.0 | 0.00 | 0.00 | 0.00 | 43 | 1012.5 |
| 20260905235715 | 98 | 158 | 0.0 | 3.0 | 0.00 | 0.00 | 0.00 | 43 | 1012.5 |
| 20260905235209 | 98 | 157 | 0.0 | 3.0 | 0.00 | 0.00 | 0.00 | 42 | 1012.5 |
| 20260905234705 | 98 | 121 | 2.0 | 5.0 | 0.00 | 0.00 | 0.00 | 42 | 1012.9 |
| 20260905234200 | 98 | 148 | 1.0 | 5.0 | 0.00 | 0.00 | 0.00 | 43 | 1012.5 |
| 20260905233656 | 98 | 160 | 3.0 | 5.0 | 0.00 | 0.00 | 0.00 | 43 | 1012.5 |
| 20260905233155 | 98 | 92 | 3.0 | 3.0 | 0.00 | 0.00 | 0.00 | 43 | 1012.2 |
| 20260905232650 | 98 | 130 | 5.0 | 7.0 | 0.00 | 0.00 | 0.00 | 43 | 1012.5 |
| 20260905232146 | 99 | 145 | 6.0 | 8.0 | 0.00 | 0.00 | 0.00 | 43 | 1012.2 |
| 20260905231640 | 99 | 148 | 1.0 | 2.0 | 0.00 | 0.00 | 0.00 | 43 | 1012.5 |
| 20260905231137 | 99 | 169 | 3.0 | 3.0 | 0.00 | 0.00 | 0.00 | 43 | 1012.5 |
| 20260905230632 | 99 | 126 | 5.0 | 7.0 | 0.00 | 0.00 | 0.00 | 43 | 1012.2 |